{"data":{"norad_id":51105,"epoch":"2026-09-20T03:16:54.748992Z","epoch_age_seconds":79847,"freshness":"FRESH","line1":"1 51105U 22005B   26263.13674478 -.00029464  00000+0 -86024-3 0  9999","line2":"2 51105  53.1596 127.2356 0001802  73.5316 286.5884 15.34545100258357","mean_motion":15.345451,"eccentricity":0.0001802,"inclination_deg":53.1596,"raan_deg":127.2356,"arg_perigee_deg":73.5316,"mean_anomaly_deg":286.5884,"bstar":-0.00086024,"rev_number":25835,"period_min":93.838884240027,"perigee_km":461.03936470843,"apogee_km":463.50464811434,"semimajor_km":6840.4090064114,"source":"CELESTRAK","updated_at":"2026-09-20T09:00:39.583994Z"}}